Regional Weather Roundup
Issued by NWS Lake Charles, LA

Home | Current Version | Previous Version | Text Only | Print | Product List | Glossary On
Versions: 1 2 3 4 5 6 7 8 9 10 11 12 13 14 15 16 17 18 19 20 21 22 23 24 25 26 27 28 29 30 31 32 33 34 35 36 37 38 39 40 41 42 43 44 45 46 47 48 49 50
018
ASUS44 KLCH 221310
RWRLCH
REGIONAL WEATHER ROUNDUP
NATIONAL WEATHER SERVICE LAKE CHARLES LA
700 AM CST THU FEB 22 2018

Note: "fair" indicates few or no clouds below 12,000 feet with no
significant weather and/or obstructions to visibility.


ACROSS SOUTHEAST TEXAS

CITY           SKY/WX    TMP DP  RH WIND       PRES   REMARKS
BEAUMONT       CLOUDY    66  64  93 CALM      30.19R FOG
BEAUMONT CITY  CLOUDY    62  61  94 N5        30.20S FOG
ORANGE         CLOUDY    69  69 100 S3        30.21R
JASPER         CLOUDY    58  58 100 CALM      30.24R FOG
$$

ACROSS CENTRAL LOUISIANA

CITY           SKY/WX    TMP DP  RH WIND       PRES   REMARKS
LEESVILLE      CLOUDY    59  58  97 CALM      30.22R
FULLERTON      CLOUDY    60  60 100 CALM      30.20R
ALEXANDRIA INT CLOUDY    59  58  96 E3        30.22R
ESLER FIELD    CLOUDY    60  60 100 CALM      30.24R
DERIDDER       CLOUDY    60  59  96 CALM      30.24R FOG
OAKDALE        CLOUDY    72  69  91 S6        30.23R
OPELOUSAS      PTSUNNY   71  69  95 S7        30.24R
$$

ACROSS SOUTHWEST AND SOUTH CENTRAL LOUISIANA

CITY           SKY/WX    TMP DP  RH WIND       PRES   REMARKS
SULPHUR        CLOUDY    72  71  98 SE8       30.21R FOG
LAKE CHARLES   CLOUDY    72  71  97 S14       30.21R
CHENNAULT INT  CLOUDY    72  70  94 SE12      30.21R FOG
CAMERON PHI    FOG       70  70 100 SE10      30.21R VSB 0
DEQUINCY       CLOUDY    61  60  97 CALM      30.22R
JENNINGS       CLOUDY    72  69  93 S5        30.23R
LAFAYETTE      MOCLDY    73  71  93 SE6       30.24S
NEW IBERIA     CLOUDY    73  70  90 S8        30.25R
ABBEVILLE      CLOUDY    72  72 100 SE8       30.25R FOG
PATTERSON      CLOUDY    71  71 100 SE5       30.26R FOG
SALT POINT       N/A     70  69  97 SE5       30.23R
$$

SELECTED SITES ACROSS THE REGION

CITY           SKY/WX    TMP DP  RH WIND       PRES   REMARKS
HOUSTON BUSH   FOG       55  55 100 N7        30.20R VSB 1/2
HOUSTON HOBBY  LGT RAIN  55  55 100 N6        30.19R FOG
GALVESTON      LGT RAIN  67  66  97 N3        30.18R VSB 1/2
COLLEGE STAT   CLOUDY    41  41 100 N7        30.23S FOG
CONROE         FOG       50  50 100 NW7       30.21S VSB 1
HUNTSVILLE     CLOUDY    44  43  96 N5        30.22S
LUFKIN         CLOUDY    54  54 100 NE3       30.22R
SHREVEPORT     CLOUDY    50  50 100 NE12      30.23F FOG
MONROE         LGT RAIN  51  50  96 N12       30.28R
NATCHEZ MS     CLOUDY    71  69  93 S9        30.26R
BATON ROUGE    MOCLDY    71  69  93 E3        30.26R FOG
N.O. INTL ARPT FAIR      71  71 100 SE8       30.28R
SLIDELL        CLOUDY    70  69  97 SE5       30.28R
$$

MARINE REPORTS

STATION/POSITION TIME  SKY/WX   TEMP    WIND        PRES    VSBY
                                AIR SEA DIR/SP/G
                 (UTC)          (F)     (DEG/KT/KT) (MB)    (MI)
BUOY 30 S HIGH I 1150            66 61  130/  4/  4 1021.6
WVE H/P(F/S)=  4/ 8

SEA RIM ST PARK  1200            68     200/  4/  5 1022.2R
PORT ARTHUR      1248            70 68  160/  3/  5 1022.6R
SABINE PASS N    1248            70 69  150/ 12/ 15 1023.9R
TEXAS POINT      NOT AVBL
CALCASIEU PASS   1248            68 69  140/  7/  9 1021.8R
LK CHARLES BEACH 1248            71 69              1022.3R
MARSH ISLAND     1200            71                   N/A
FRESH WATER LOCK 1248            70 73  120/  5/  7 1023.7R
AMERADA PASS     1248            71 54  130/  5/  8 1024.1R
$$




USA.gov is the U.S. government's official web portal to all federal, state and local government web resources and services.